Weather History for MMZC - February, 2014

Change the Weather History Date:

Tuesday, February 25, 2014

  Actual Average Record
Temperature  
Mean Temperature 56 °F -  
Max Temperature 73 °F 71 °F 86 °F (2013)
Min Temperature 39 °F 38 °F 23 °F (2004)
Degree Days  
Heating Degree Days 9    
Growing Degree Days 6 (Base 50)    
Moisture  
Dew Point 33 °F    
Average Humidity 41    
Maximum Humidity 70    
Minimum Humidity 20    
Precipitation  
Precipitation 0.00 in - - ()
Sea Level Pressure  
Sea Level Pressure 30.25 in    
Wind  
Wind Speed 10 mph ()    
Max Wind Speed 21 mph    
Max Gust Speed -    
Visibility 10.0 miles    
Events      
Averages and records for this station are not official NWS values.
T = Trace of Precipitation, MM = Missing Value Source: Averaged Metar Reports

Daily Weather History Graph

Daily Weather History Graph

Search for Another Location

Airport or City:

Trip Planner

Search our weather history database for the weather conditions in past years. The results will help you decide how hot, cold, wet, or windy it might be!

Date:

Astronomy

Feb. 25, 2014 Rise Set
Actual Time 7:15 AM CST 6:52 PM CST
Civil Twilight 6:52 AM CST 7:15 PM CST
Nautical Twilight 6:26 AM CST 7:41 PM CST
Astronomical Twilight 6:00 AM CST 8:07 PM CST
Moon 3:53 AM CST (2/25) 3:17 PM CST (2/25)
Length of Visible Light 12h 22m
Length of Day
11h 36m
Waning Crescent, 18% of the Moon is Illuminated
Feb 25
Waning Crescent
Mar 1
New
Mar 8
First Quarter
Mar 16
Full
Mar 23
Last Quarter

Hourly Weather History & Observations

Time (CST) Temp. Windchill Dew Point Humidity Pressure Visibility Wind Dir Wind Speed Gust Speed Precip Events Conditions
12:41 AM 53.6 °F - 32.0 °F 44% 30.26 in 10.0 mi SSW 9.2 mph - N/A   Mostly Cloudy
1:42 AM 50.0 °F - 32.0 °F 50% 30.25 in 10.0 mi South 10.4 mph - N/A   Scattered Clouds
3:41 AM 42.8 °F 38.6 °F 30.2 °F 61% 30.23 in 10.0 mi South 6.9 mph - N/A   Scattered Clouds
4:43 AM 39.2 °F 35.0 °F 30.2 °F 70% 30.23 in 10.0 mi SSW 5.8 mph - N/A   Scattered Clouds
5:41 AM 41.0 °F 36.4 °F 30.2 °F 65% 30.23 in 10.0 mi South 6.9 mph - N/A   Scattered Clouds
6:45 AM 51.8 °F - 33.8 °F 50% 30.25 in 10.0 mi South 9.2 mph - N/A   Mostly Cloudy
7:42 AM 48.2 °F - 33.8 °F 58% 30.28 in 10.0 mi South 8.1 mph - N/A   Mostly Cloudy
8:45 AM 57.2 °F - 37.4 °F 48% 30.28 in 10.0 mi South 10.4 mph - N/A   Mostly Cloudy
9:50 AM 60.8 °F - 37.4 °F 42% 30.30 in 10.0 mi SSW 10.4 mph - N/A   Mostly Cloudy
10:50 AM 53.6 °F - 35.6 °F 51% 30.30 in 10.0 mi WSW 20.7 mph - N/A   Mostly Cloudy
11:49 AM 71.6 °F - 35.6 °F 27% 30.29 in 10.0 mi WSW 18.4 mph - N/A   Mostly Cloudy
12:40 PM 71.6 °F - 33.8 °F 25% 30.28 in 10.0 mi West 20.7 mph - N/A   Mostly Cloudy
1:46 PM 71.6 °F - 33.8 °F 25% 30.24 in 10.0 mi West 16.1 mph - N/A   Mostly Cloudy
2:43 PM 73.4 °F - 30.2 °F 20% 30.21 in 10.0 mi WSW 18.4 mph - N/A   Overcast
3:52 PM 71.6 °F - 32.0 °F 23% 30.19 in 10.0 mi West 16.1 mph - N/A   Overcast
4:47 PM 71.6 °F - 30.2 °F 22% 30.19 in 10.0 mi West 17.3 mph - N/A   Mostly Cloudy
5:40 PM 69.8 °F - 30.2 °F 23% 30.20 in 10.0 mi WSW 13.8 mph - N/A   Overcast
6:40 PM 66.2 °F - 32.0 °F 28% 30.21 in 10.0 mi WNW 12.7 mph - N/A   Mostly Cloudy
7:41 PM 57.2 °F - 32.0 °F 38% 30.23 in 10.0 mi West 5.8 mph - N/A   Mostly Cloudy
8:52 PM 53.6 °F - 30.2 °F 41% 30.25 in 10.0 mi SW 4.6 mph - N/A   Mostly Cloudy
9:42 PM 53.6 °F - 30.2 °F 41% 30.26 in 10.0 mi SSW 5.8 mph - N/A   Mostly Cloudy
10:42 PM 51.8 °F - 32.0 °F 47% 30.28 in 10.0 mi West 6.9 mph - N/A   Mostly Cloudy
11:42 PM 51.8 °F - 33.8 °F 50% 30.28 in 10.0 mi South 9.2 mph - N/A   Scattered Clouds